SCP
-0 -0 -0 -0 -0 -0 -0 -0 -0 0 0 0 0 0 0 -0 -0 -0 0 0 0 -0 0 -0 -0 -0 -0 0 0 0 0 0 0 0 -0 -0 -0 -0 -0 -0 0 -0 -0
-0 -0 -0 -0 -0 -0 -0 -0 -0 -0 -0 0 0 0 0 0 0 0 -0 -0 0 -0 -0 0 0 0 0 0 0 0 0 0 0 0 0 -0 -0 -0 -0 -0 -0 -0 -0
-0 -0 -0 -0 -0 -0 -0 -0 -0 -0 -0 -0 -0 -0 0 0 0 0 0 0 0 0 -0 0 0 0 0 0 0 0 0 0 0 0 0 0 0 -0 -0 -0 -0 -0 -0
-0 -0 -0 -0 -0 -0 -0 -0 -0 -0 -0 -0 -0 -0 -0 0 0 0 0 0 0 0 0 0 0 0 0 0 0 0 0 0 0 0 0 0 0 0 -0 0 -0 -0 -0
-0 -0 -0 -0 -0 -0 -0 -0 -0 -0 -0 -0 -0 -0 0 0 0 0 0 0 0 0 0 0 0 0 0 0 0 0 0 0 0 0 0 0 0 0 0 0 0 -0 0
-0 -0 -0 -0 -0 -0 -0 -0 -0 -0 -0 -0 -0 0 0 0 0 0 0 0 0 0 0 0 0 0 0 0 0 0 0 0 0 0 0 0 0 0 -0 -0 -0 -0 -0
-0 -0 -0 -0 -0 -0 -0 -0 -0 -0 -0 0 0 0 0 0 0 0 0 0 0 0 0 0 0 0 0 0 0 0 0 0 0 0 0 0 0 0 0 0 0 0 0
-0 -0 -0 -0 -0 0 0 0 -0 -0 0 0 0 0 0 0 0 0 0 0 0 0 -0 0 0 0 0 0 0 0 0 0 0 0 0 0 0 0 0 0 0 0 0
-0 -0 -0 -0 -0 -0 -0 0 0 0 0 0 0 0 0 0 0 0 0 0 0 0 0 0 0 0 0 0 0 0 0 0 0 0 0 0 0 0 0 0 0 0 0
-0 -0 -0 -0 -0 -0 -0 0 0 0 0 0 0 0 0 0 0 0 0 0 0 0 0 0 0 0 0 0 0 0 0 0 0 0 0 0 0 0 0 0 0 0 0
0 -0 -0 -0 -0 -0 -0 -0 0 0 0 0 0 0 0 0 0 0 0 0 0 0 0 0 0 0 0 0 0 0 0 0 0 0 0 0 0 0 0 0 0 0 0
0 -0 0 -0 -0 -0 0 0 0 0 0 0 0 0 0 0 0 0 0 0 0 0 0 0 0 0 0 0 0 0 0 0 0 0 0 0 0 0 0 0 0 0 0
0 0 0 0 0 0 0 0 0 0 0 0 0 0 0 0 0 0 0 0 0 0 0 0 0 0 0 0 0 0 0 0 0 0 0 0 0 0 0 0 0 0 0
0 0 0 0 0 0 0 0 0 0 0 0 0 0 0 0 0 0 0 0 0 0 0 0 0 0 0 0 0 0 0 0 0 0 0 0 0 0 0 0 0 0 0
0 0 0 0 0 0 0 0 0 0 0 0 0 0 0 0 0 0 0 0 0 0 0 0 0 0 0 0 0 0 0 0 0 0 0 0 0 0 0 0 0 0 0
0 0 0 0 0 0 0 0 0 0 0 0 0 0 0 0 0 0 0 0 0 0 0 0 0 0 0 0 0 0 0 0 0 0 0 0 0 0 0 0 0 0 0
0 0 0 0 0 0 0 0 0 0 0 0 0 0 0 0 0 0 0 0 0 0 0 0 0 0 0 0 0 0 0 0 0 0 0 0 0 0 0 0 0 0 0
0 0 0 0 0 0 0 0 0 0 0 0 0 0 0 0 0 0 0 0 0 0 0 0 0 0 0 0 0 0 0 0 0 0 0 0 0 0 0 0 0 0 0
0 0 0 0 0 0 0 0 0 0 0 0 0 0 0 0 0 0 0 0 0 0 0 0 0 0 0 0 0 0 0 0 0 0 0 0 0 0 0 0 0 0 0
0 0 0 0 0 0 0 0 0 0 0 0 0 0 0 0 0 0 0 0 0 0 0 0 0 0 0 0 0 0 0 0 0 0 0 0 0 0 0 0 0 0 0
0 0 0 0 0 0 0 0 0 0 0 0 0 0 0 0 0 0 0 0 0 0 0 0 0 0 0 0 0 0 0 0 0 0 0 0 0 0 0 0 0 0 0
0 0 0 0 0 0 0 0 0 0 0 0 0 0 0 0 0 0 0 0 0 0 0 0 0 0 0 0 0 0 0 0 0 0 0 0 0 0 0 0 0 0 0
0 0 0 0 0 0 0 0 0 0 0 0 0 0 0 0 0 0 0 0 0 0 0 0 0 0 0 0 0 0 0 0 0 0 0 0 0 0 0 0 0 0 0
0 0 0 0 -0 -0 -0 0 0 0 0 0 0 0 0 0 0 0 0 0 0 0 0 0 0 0 0 0 0 0 0 0 0 0 0 0 0 0 0 0 0 0 0
0 0 0 0 0 -0 -0 -0 0 0 0 0 0 0 0 0 0 0 0 0 0 0 0 0 0 0 0 0 0 0 0 0 0 0 0 0 0 0 0 0 0 0 0
0 0 0 0 0 0 -0 -0 -0 0 0 0 0 0 0 0 0 0 0 0 0 0 0 0 0 0 0 0 0 0 0 0 0 0 0 0 0 0 0 0 0 0 0
Wind_Speed_500mb
47 41 43 41 38 36 34 33 33 30 28 28 26 24 22 19 18 15 12 10 9 8 10 10 7 6 5 5 4 3 3 3 3 4 6 9 10 7 8 11 17 14 14
43 42 43 43 40 38 36 34 31 30 29 27 26 24 24 22 20 17 15 12 11 13 10 6 6 8 7 5 4 3 2 1 1 2 5 6 6 3 4 7 9 12 12
34 38 42 43 40 39 38 34 32 29 26 24 25 25 23 23 21 18 17 17 18 17 13 11 11 11 10 9 8 6 5 4 4 2 4 11 4 4 5 3 2 4 6
32 38 40 41 41 38 38 36 33 30 28 27 26 24 24 21 21 21 20 21 21 20 16 15 16 15 13 12 11 10 10 9 7 6 7 9 6 4 7 9 8 6 4
31 37 39 39 42 38 35 36 33 28 27 28 27 30 30 25 23 22 21 22 24 20 19 18 17 15 14 12 10 10 10 10 10 9 10 8 9 7 11 11 11 11 10
31 38 39 40 43 45 41 36 34 34 34 31 27 37 28 24 21 22 23 24 23 22 20 18 14 12 10 7 5 5 7 8 10 11 12 14 7 16 15 10 10 12 11
32 38 39 41 44 47 44 42 41 38 35 38 40 32 28 25 23 23 25 24 22 20 19 15 10 6 5 4 3 3 5 6 9 13 14 13 14 18 18 16 15 14 11
32 37 39 43 44 45 46 45 45 44 45 40 33 31 29 28 26 25 24 22 21 20 17 12 10 8 6 5 3 3 3 4 6 10 14 18 19 18 18 18 18 20 17
36 39 41 44 47 46 47 48 48 49 46 41 33 33 31 29 27 25 23 23 22 22 19 17 15 12 10 9 8 8 7 6 7 8 11 17 15 18 17 16 19 22 20
38 41 45 48 52 53 54 53 52 51 51 45 38 34 32 30 29 28 26 26 24 23 21 19 17 15 13 12 11 10 9 9 10 10 12 15 17 19 17 17 19 19 19
41 45 48 52 55 58 58 58 56 54 52 49 41 37 34 34 32 31 30 28 27 27 24 20 18 16 14 12 11 10 10 10 10 11 14 15 17 18 18 17 17 17 16
47 48 51 54 56 60 62 61 59 59 57 52 46 44 41 40 37 35 34 34 32 30 27 23 21 17 15 13 11 10 9 8 9 10 13 15 17 17 18 20 21 20 18
47 54 54 56 58 62 65 64 65 65 62 57 53 50 47 45 43 43 44 42 41 37 34 31 27 24 20 17 14 12 11 10 10 11 12 14 15 15 19 21 21 20 18
54 53 58 60 62 62 66 68 68 68 65 63 60 57 54 53 51 49 48 46 44 42 39 35 31 27 24 20 17 14 13 12 11 11 12 13 13 15 17 19 18 13 12
59 59 63 63 66 66 67 70 73 73 71 68 66 64 61 61 58 55 54 52 50 47 44 40 36 32 27 23 19 17 15 13 12 11 12 12 15 15 14 10 9 17 17
53 56 62 68 68 71 72 74 75 77 76 75 74 71 69 68 64 62 60 59 57 53 49 45 40 36 30 26 22 18 16 14 13 11 12 12 15 21 19 12 21 15 16
48 48 58 62 69 76 78 79 82 81 81 81 78 77 76 74 70 67 67 65 62 58 54 51 47 41 36 31 26 22 19 16 15 14 13 13 15 19 19 28 26 27 24
58 53 50 58 65 72 79 83 87 89 89 89 87 85 84 81 78 76 75 71 68 66 63 59 53 47 42 36 31 27 23 20 18 17 17 18 20 22 31 36 34 24 16
40 45 49 53 57 65 77 86 90 93 96 95 96 94 91 87 86 84 81 77 75 73 71 66 60 55 49 42 37 31 28 26 24 23 23 23 26 29 33 26 22 23 20
22 25 33 44 53 61 71 84 94 99 102 103 104 101 97 96 93 91 89 85 82 82 79 72 67 63 55 49 43 39 35 32 30 30 29 29 30 30 30 30 27 23 18
17 17 19 28 35 48 64 78 88 101 102 108 110 107 105 102 101 99 97 94 92 91 84 79 75 68 61 57 49 43 39 38 36 35 35 36 35 33 31 29 27 23 21
47 43 36 32 34 42 49 59 74 84 95 103 105 116 116 113 112 110 106 104 101 97 93 89 86 79 74 67 56 40 27 35 41 40 40 40 39 36 34 32 29 25 23
42 40 45 52 52 43 43 51 61 72 87 92 101 113 120 120 118 114 110 110 105 103 102 98 93 90 83 77 72 37 18 20 36 48 46 46 44 41 39 36 30 26 24
44 41 42 42 44 42 37 40 51 65 76 85 90 94 102 113 121 121 117 116 112 109 107 102 99 96 92 88 81 77 47 27 21 20 53 54 52 49 44 38 31 28 27
39 42 41 40 39 39 38 35 39 51 61 67 72 83 90 94 100 120 123 122 121 117 114 112 110 108 104 98 93 88 79 55 38 27 24 53 62 58 54 48 39 34 33
47 44 42 38 35 36 37 36 35 40 46 53 63 73 79 84 89 98 116 126 126 123 121 118 114 111 107 104 97 95 91 86 76 57 41 35 50 61 63 58 53 44 42
Wind_Direction_500mb
192 192 192 193 187 182 180 181 183 190 191 191 192 196 200 198 199 204 198 184 180 223 251 264 270 300 4 28 26 6 23 33 53 68 81 96 114 87 79 79 81 73 77
195 194 194 197 196 191 189 189 191 193 196 196 198 200 203 199 198 199 207 216 234 251 283 308 316 316 325 325 321 329 322 330 167 115 116 122 126 107 108 101 81 78 74
190 199 197 199 200 196 194 195 196 197 201 203 202 204 208 208 212 220 222 227 240 259 278 285 285 288 288 280 270 268 268 269 256 219 158 115 140 204 206 159 139 95 94
188 196 200 200 201 197 198 199 202 204 206 207 206 207 220 219 223 229 230 228 238 252 268 270 275 280 277 272 264 259 252 249 247 223 192 130 105 241 236 238 241 248 235
191 194 198 202 203 199 202 205 206 205 205 209 214 224 234 235 224 224 225 230 240 250 255 265 272 278 278 271 262 252 244 235 230 226 211 146 165 227 253 240 249 257 262
200 195 199 199 201 202 200 206 209 203 211 220 221 231 238 229 220 230 236 241 248 256 261 263 270 271 269 270 262 244 233 217 207 211 208 204 178 225 262 299 274 264 270
209 202 203 202 201 202 205 208 206 207 212 222 227 235 232 236 235 238 243 250 252 254 258 266 261 244 223 205 199 185 185 187 198 207 205 191 226 245 260 273 280 284 292
215 212 209 206 205 205 203 203 202 207 215 229 232 231 236 241 243 242 241 241 245 250 250 237 225 218 223 223 219 212 203 189 203 210 211 222 241 249 258 270 278 283 279
215 216 216 212 211 209 208 209 211 218 226 241 234 233 235 238 239 236 238 238 236 231 219 210 211 212 218 222 221 224 229 233 233 228 228 239 252 257 263 269 276 279 281
222 221 219 218 215 213 215 218 221 225 231 242 238 236 234 234 232 233 234 233 226 221 216 215 215 213 215 218 222 229 233 236 235 235 244 256 262 265 272 274 275 280 282
231 228 225 222 220 219 220 223 226 229 235 241 236 233 232 231 231 233 231 228 220 217 216 215 216 215 220 223 220 222 225 229 236 240 245 251 259 269 274 275 274 276 280
239 236 231 227 225 223 224 224 228 233 235 236 233 233 228 228 228 229 227 224 222 222 222 222 225 230 235 235 239 240 239 245 248 248 252 252 255 261 267 268 273 275 281
255 240 238 233 230 228 228 226 227 230 233 234 233 233 229 229 229 225 223 220 219 220 222 221 223 226 231 235 236 237 243 248 251 257 258 258 261 261 259 266 269 274 277
255 249 242 238 235 234 232 231 232 233 234 234 233 232 230 229 230 229 228 224 221 219 219 220 222 224 224 226 231 237 244 253 260 259 257 254 248 255 267 270 271 275 162
255 250 245 240 238 237 235 236 234 236 236 237 235 233 230 230 231 231 229 227 224 222 222 223 223 222 221 220 222 226 229 237 244 252 254 246 244 235 238 217 155 187 235
267 256 248 244 242 240 239 238 239 239 239 236 236 235 232 232 232 231 230 228 226 224 223 223 224 224 223 224 226 229 236 245 251 252 248 237 234 226 216 179 169 192 241
288 272 255 248 243 242 242 239 240 239 240 241 239 236 234 233 233 232 231 229 228 227 226 225 225 224 224 224 225 228 234 241 248 254 253 237 216 223 211 187 192 230 259
280 278 266 251 246 245 245 242 242 241 240 241 239 237 235 233 233 232 231 229 228 227 225 224 225 225 225 225 226 227 231 236 240 241 236 223 207 200 186 205 226 246 237
284 275 270 266 259 252 248 245 245 244 243 242 241 239 237 234 232 233 233 230 229 227 226 225 223 224 225 226 227 229 232 234 237 236 230 220 208 203 209 228 231 236 237
313 292 278 271 264 259 256 249 245 245 245 243 242 242 240 237 235 232 232 231 229 227 226 226 225 224 221 223 225 226 229 232 232 231 228 223 219 219 221 221 230 236 239
9 343 313 291 282 266 259 253 249 248 246 245 245 244 241 240 238 235 233 231 228 229 228 226 225 224 223 221 219 220 224 225 225 223 223 224 225 224 224 227 227 230 248
34 23 8 343 310 289 274 266 262 257 255 253 249 245 243 240 238 235 234 232 230 227 226 226 226 222 219 221 216 215 217 224 224 223 224 223 220 220 219 217 221 233 237
38 36 30 19 8 343 304 281 270 258 258 257 256 254 249 244 241 239 237 236 232 230 228 226 226 224 223 219 217 206 196 213 212 223 219 217 217 217 218 217 223 229 235
39 33 20 9 1 357 339 305 283 273 269 269 264 261 257 252 245 242 238 237 235 232 231 230 228 227 224 223 216 218 220 207 182 203 219 219 221 222 222 220 227 233 235
32 17 11 7 4 359 356 342 311 291 282 276 271 268 266 263 255 244 239 239 237 234 233 232 228 225 225 225 223 220 219 222 216 199 199 219 224 223 223 225 231 238 236
27 20 15 9 4 359 358 360 347 322 304 284 277 272 272 268 264 255 246 240 239 237 234 234 233 230 229 227 226 227 227 222 221 216 215 210 226 226 228 228 232 239 235
Wind_Speed_850mb
47 41 43 41 38 36 34 33 33 30 28 28 26 24 22 19 18 15 12 10 9 8 10 10 7 6 5 5 4 3 3 3 3 4 6 9 10 7 8 11 17 14 14
43 42 43 43 40 38 36 34 31 30 29 27 26 24 24 22 20 17 15 12 11 13 10 6 6 8 7 5 4 3 2 1 1 2 5 6 6 3 4 7 9 12 12
34 38 42 43 40 39 38 34 32 29 26 24 25 25 23 23 21 18 17 17 18 17 13 11 11 11 10 9 8 6 5 4 4 2 4 11 4 4 5 3 2 4 6
32 38 40 41 41 38 38 36 33 30 28 27 26 24 24 21 21 21 20 21 21 20 16 15 16 15 13 12 11 10 10 9 7 6 7 9 6 4 7 9 8 6 4
31 37 39 39 42 38 35 36 33 28 27 28 27 30 30 25 23 22 21 22 24 20 19 18 17 15 14 12 10 10 10 10 10 9 10 8 9 7 11 11 11 11 10
31 38 39 40 43 45 41 36 34 34 34 31 27 37 28 24 21 22 23 24 23 22 20 18 14 12 10 7 5 5 7 8 10 11 12 14 7 16 15 10 10 12 11
32 38 39 41 44 47 44 42 41 38 35 38 40 32 28 25 23 23 25 24 22 20 19 15 10 6 5 4 3 3 5 6 9 13 14 13 14 18 18 16 15 14 11
32 37 39 43 44 45 46 45 45 44 45 40 33 31 29 28 26 25 24 22 21 20 17 12 10 8 6 5 3 3 3 4 6 10 14 18 19 18 18 18 18 20 17
36 39 41 44 47 46 47 48 48 49 46 41 33 33 31 29 27 25 23 23 22 22 19 17 15 12 10 9 8 8 7 6 7 8 11 17 15 18 17 16 19 22 20
38 41 45 48 52 53 54 53 52 51 51 45 38 34 32 30 29 28 26 26 24 23 21 19 17 15 13 12 11 10 9 9 10 10 12 15 17 19 17 17 19 19 19
41 45 48 52 55 58 58 58 56 54 52 49 41 37 34 34 32 31 30 28 27 27 24 20 18 16 14 12 11 10 10 10 10 11 14 15 17 18 18 17 17 17 16
47 48 51 54 56 60 62 61 59 59 57 52 46 44 41 40 37 35 34 34 32 30 27 23 21 17 15 13 11 10 9 8 9 10 13 15 17 17 18 20 21 20 18
47 54 54 56 58 62 65 64 65 65 62 57 53 50 47 45 43 43 44 42 41 37 34 31 27 24 20 17 14 12 11 10 10 11 12 14 15 15 19 21 21 20 18
54 53 58 60 62 62 66 68 68 68 65 63 60 57 54 53 51 49 48 46 44 42 39 35 31 27 24 20 17 14 13 12 11 11 12 13 13 15 17 19 18 13 12
59 59 63 63 66 66 67 70 73 73 71 68 66 64 61 61 58 55 54 52 50 47 44 40 36 32 27 23 19 17 15 13 12 11 12 12 15 15 14 10 9 17 17
53 56 62 68 68 71 72 74 75 77 76 75 74 71 69 68 64 62 60 59 57 53 49 45 40 36 30 26 22 18 16 14 13 11 12 12 15 21 19 12 21 15 16
48 48 58 62 69 76 78 79 82 81 81 81 78 77 76 74 70 67 67 65 62 58 54 51 47 41 36 31 26 22 19 16 15 14 13 13 15 19 19 28 26 27 24
58 53 50 58 65 72 79 83 87 89 89 89 87 85 84 81 78 76 75 71 68 66 63 59 53 47 42 36 31 27 23 20 18 17 17 18 20 22 31 36 34 24 16
40 45 49 53 57 65 77 86 90 93 96 95 96 94 91 87 86 84 81 77 75 73 71 66 60 55 49 42 37 31 28 26 24 23 23 23 26 29 33 26 22 23 20
22 25 33 44 53 61 71 84 94 99 102 103 104 101 97 96 93 91 89 85 82 82 79 72 67 63 55 49 43 39 35 32 30 30 29 29 30 30 30 30 27 23 18
17 17 19 28 35 48 64 78 88 101 102 108 110 107 105 102 101 99 97 94 92 91 84 79 75 68 61 57 49 43 39 38 36 35 35 36 35 33 31 29 27 23 21
47 43 36 32 34 42 49 59 74 84 95 103 105 116 116 113 112 110 106 104 101 97 93 89 86 79 74 67 56 40 27 35 41 40 40 40 39 36 34 32 29 25 23
42 40 45 52 52 43 43 51 61 72 87 92 101 113 120 120 118 114 110 110 105 103 102 98 93 90 83 77 72 37 18 20 36 48 46 46 44 41 39 36 30 26 24
44 41 42 42 44 42 37 40 51 65 76 85 90 94 102 113 121 121 117 116 112 109 107 102 99 96 92 88 81 77 47 27 21 20 53 54 52 49 44 38 31 28 27
39 42 41 40 39 39 38 35 39 51 61 67 72 83 90 94 100 120 123 122 121 117 114 112 110 108 104 98 93 88 79 55 38 27 24 53 62 58 54 48 39 34 33
47 44 42 38 35 36 37 36 35 40 46 53 63 73 79 84 89 98 116 126 126 123 121 118 114 111 107 104 97 95 91 86 76 57 41 35 50 61 63 58 53 44 42
Wind_Direction_850mb
192 192 192 193 187 182 180 181 183 190 191 191 192 196 200 198 199 204 198 184 180 223 251 264 270 300 4 28 26 6 23 33 53 68 81 96 114 87 79 79 81 73 77
195 194 194 197 196 191 189 189 191 193 196 196 198 200 203 199 198 199 207 216 234 251 283 308 316 316 325 325 321 329 322 330 167 115 116 122 126 107 108 101 81 78 74
190 199 197 199 200 196 194 195 196 197 201 203 202 204 208 208 212 220 222 227 240 259 278 285 285 288 288 280 270 268 268 269 256 219 158 115 140 204 206 159 139 95 94
188 196 200 200 201 197 198 199 202 204 206 207 206 207 220 219 223 229 230 228 238 252 268 270 275 280 277 272 264 259 252 249 247 223 192 130 105 241 236 238 241 248 235
191 194 198 202 203 199 202 205 206 205 205 209 214 224 234 235 224 224 225 230 240 250 255 265 272 278 278 271 262 252 244 235 230 226 211 146 165 227 253 240 249 257 262
200 195 199 199 201 202 200 206 209 203 211 220 221 231 238 229 220 230 236 241 248 256 261 263 270 271 269 270 262 244 233 217 207 211 208 204 178 225 262 299 274 264 270
209 202 203 202 201 202 205 208 206 207 212 222 227 235 232 236 235 238 243 250 252 254 258 266 261 244 223 205 199 185 185 187 198 207 205 191 226 245 260 273 280 284 292
215 212 209 206 205 205 203 203 202 207 215 229 232 231 236 241 243 242 241 241 245 250 250 237 225 218 223 223 219 212 203 189 203 210 211 222 241 249 258 270 278 283 279
215 216 216 212 211 209 208 209 211 218 226 241 234 233 235 238 239 236 238 238 236 231 219 210 211 212 218 222 221 224 229 233 233 228 228 239 252 257 263 269 276 279 281
222 221 219 218 215 213 215 218 221 225 231 242 238 236 234 234 232 233 234 233 226 221 216 215 215 213 215 218 222 229 233 236 235 235 244 256 262 265 272 274 275 280 282
231 228 225 222 220 219 220 223 226 229 235 241 236 233 232 231 231 233 231 228 220 217 216 215 216 215 220 223 220 222 225 229 236 240 245 251 259 269 274 275 274 276 280
239 236 231 227 225 223 224 224 228 233 235 236 233 233 228 228 228 229 227 224 222 222 222 222 225 230 235 235 239 240 239 245 248 248 252 252 255 261 267 268 273 275 281
255 240 238 233 230 228 228 226 227 230 233 234 233 233 229 229 229 225 223 220 219 220 222 221 223 226 231 235 236 237 243 248 251 257 258 258 261 261 259 266 269 274 277
255 249 242 238 235 234 232 231 232 233 234 234 233 232 230 229 230 229 228 224 221 219 219 220 222 224 224 226 231 237 244 253 260 259 257 254 248 255 267 270 271 275 162
255 250 245 240 238 237 235 236 234 236 236 237 235 233 230 230 231 231 229 227 224 222 222 223 223 222 221 220 222 226 229 237 244 252 254 246 244 235 238 217 155 187 235
267 256 248 244 242 240 239 238 239 239 239 236 236 235 232 232 232 231 230 228 226 224 223 223 224 224 223 224 226 229 236 245 251 252 248 237 234 226 216 179 169 192 241
288 272 255 248 243 242 242 239 240 239 240 241 239 236 234 233 233 232 231 229 228 227 226 225 225 224 224 224 225 228 234 241 248 254 253 237 216 223 211 187 192 230 259
280 278 266 251 246 245 245 242 242 241 240 241 239 237 235 233 233 232 231 229 228 227 225 224 225 225 225 225 226 227 231 236 240 241 236 223 207 200 186 205 226 246 237
284 275 270 266 259 252 248 245 245 244 243 242 241 239 237 234 232 233 233 230 229 227 226 225 223 224 225 226 227 229 232 234 237 236 230 220 208 203 209 228 231 236 237
313 292 278 271 264 259 256 249 245 245 245 243 242 242 240 237 235 232 232 231 229 227 226 226 225 224 221 223 225 226 229 232 232 231 228 223 219 219 221 221 230 236 239
9 343 313 291 282 266 259 253 249 248 246 245 245 244 241 240 238 235 233 231 228 229 228 226 225 224 223 221 219 220 224 225 225 223 223 224 225 224 224 227 227 230 248
34 23 8 343 310 289 274 266 262 257 255 253 249 245 243 240 238 235 234 232 230 227 226 226 226 222 219 221 216 215 217 224 224 223 224 223 220 220 219 217 221 233 237
38 36 30 19 8 343 304 281 270 258 258 257 256 254 249 244 241 239 237 236 232 230 228 226 226 224 223 219 217 206 196 213 212 223 219 217 217 217 218 217 223 229 235
39 33 20 9 1 357 339 305 283 273 269 269 264 261 257 252 245 242 238 237 235 232 231 230 228 227 224 223 216 218 220 207 182 203 219 219 221 222 222 220 227 233 235
32 17 11 7 4 359 356 342 311 291 282 276 271 268 266 263 255 244 239 239 237 234 233 232 228 225 225 225 223 220 219 222 216 199 199 219 224 223 223 225 231 238 236
27 20 15 9 4 359 358 360 347 322 304 284 277 272 272 268 264 255 246 240 239 237 234 234 233 230 229 227 226 227 227 222 221 216 215 210 226 226 228 228 232 239 235